Location: Castillon
(43.0896°N, 0.2156°E)
Time: 00:17:40
(UTC+00:00)

BREEZE-M DEB (TANK) - Pass Details

Date: 16 June 2021
Orbit: 287 x 18721 km, 52.5° (Epoch: 24 July)

Event Time Altitude Azimuth Distance (km) Brightness Sun altitude
Rises 21:23:15 0° 303° (WNW) 3,782 8.5 -14.4°
Reaches altitude 10° 21:26:54 10° 308° (NW) 1,887 6.8 -14.8°
Maximum altitude 21:30:12 55° 28° (NNE) 412 2.3 -15.1°
Enters shadow 21:30:52 35° 89° (E) 531 2.5 -15.2°
